Regional Weather Roundup
Issued by NWS

Home | Current Version | Previous Version | Graphics & Text | Print | Product List | Glossary On
Versions: 1 2 3 4 5 6 7 8 9 10 11 12 13 14 15 16 17 18 19 20 21 22 23 24 25 26 27
000
ASUS45 KTFX 270310
RWRMT
MONTANA REGIONAL WEATHER ROUNDUP
NATIONAL WEATHER SERVICE GREAT FALLS MT
900 PM MDT FRI AUG 26 2016

NOTE: "FAIR" INDICATES FEW OR NO CLOUDS BELOW 12000 FEET WITH NO
SIGNIFICANT WEATHER AND/OR OBSTRUCTIONS TO VISIBILITY.

MTZ001>007-043-270400-
WEST OF THE DIVIDE

CITY           SKY/WX    TMP DP  RH WIND       PRES   REMARKS
KALISPELL      PTCLDY    67  40  37 SE8       29.88F
MISSOULA       PTCLDY    67  39  35 CALM      29.93R
BUTTE          CLEAR     61  31  32 N5        30.04R
MULLAN PASS    MOCLDY    58  31  35 VRB5      30.06F
DEER LODGE       N/A     57  34  41 W5        30.01S
EUREKA           N/A     73  39  29 E5        29.85S
HAMILTON         N/A     61  43  51 CALM      29.95R
LIBBY            N/A     68  37  32 SE3       29.87S
PLAINS           N/A     69  39  33 CALM      29.90S
RONAN            N/A     58  47  66 CALM      29.97S
$$

MTZ008-052>055-270400-
SOUTHWEST MONTANA

CITY           SKY/WX    TMP DP  RH WIND       PRES   REMARKS
BOZEMAN        PTCLDY    60  38  43 SE6       29.99R
DILLON         CLEAR     60  28  29 E6        29.99R
W YELLOWSTONE  CLOUDY    55  28  35 W3        30.10R
ENNIS          CLEAR     57  30  35 NE9       30.06R
THREE FORKS      N/A     62 -11   5 MISG      29.98R
TWIN BRIDGES     N/A     65  27  24 N7        29.98S
$$

MTZ009-010-012-014-046-048-049-054-270400-
EAST SLOPES AND CENTRAL MONTANA

CITY           SKY/WX    TMP DP  RH WIND       PRES   REMARKS
CUT BANK       CLEAR     61  38  42 S6        29.92S
GREAT FALLS    CLEAR     60  38  43 E8        29.94S
HELENA         CLEAR     66  36  32 SW8       29.95R
CHOTEAU          N/A     61  39  44 S7        29.96S
$$

MTZ011-013-016-021-045-047-050-051-270400-
NORTH CENTRAL MONTANA

CITY           SKY/WX    TMP DP  RH WIND       PRES   REMARKS
HAVRE          CLEAR     61  44  53 E9        29.91F
LEWISTOWN      CLOUDY    60  43  53 SE6       30.00S
N BAR RANCH    MOCLDY    54  43  66 W5        30.04S
CHINOOK          N/A     61  48  63 E3        29.93R
$$

MTZ017>020-022>027-061-062-270400-
NORTHEAST MONTANA

CITY           SKY/WX    TMP DP  RH WIND       PRES   REMARKS
GLASGOW        PTCLDY    60  45  57 CALM      29.94S
JORDAN           N/A     59  46  62 E3        29.97R
SIDNEY         PTCLDY    59  45  59 S5        29.96R
WOLF POINT     PTCLDY    59  47  64 NW3       29.95R
POPLAR           N/A     61  46  59 CALM      29.95R
SCOBEY           N/A     51  39  63 CALM      29.95R
$$

MTZ028>42-056>058-270400-
SOUTHCENTRAL AND SOUTHEAST MONTANA

CITY           SKY/WX    TMP DP  RH WIND       PRES   REMARKS
BAKER          CLOUDY    56  48  74 NW9       30.02R
BILLINGS       PTCLDY    63  40  42 E10       29.98R
LIVINGSTON     CLOUDY    63  37  38 E10       29.99R
MILES CITY     MOCLDY    65  42  43 E8        29.96F
EKALAKA          N/A     57  46  66 SE13      30.00R
FORSYTH          N/A     63  43  48 CALM      29.96S
LAUREL           N/A     63  39  41 N3        29.98R
ROUNDUP          N/A     61  40  45 E1        29.91S
$$

REGIONAL REPORTS...DAKOTAS

CITY           SKY/WX    TMP DP  RH WIND       PRES   REMARKS
WILLISTON      CLOUDY    64  45  49 CALM      29.95R
MINOT          MOCLDY    64  52  64 S14       29.92R
DICKINSON      PTCLDY    57  48  72 S9        29.96R
CROSBY           N/A     50  48  93 SW5       29.94R
WATFORD CITY     N/A     57  50  77 S7        29.96S
BISMARCK       CLEAR     58  54  86 S8        30.01R
GRAND FORKS    PTCLDY    56  51  84 SW8       30.01R
FARGO          MOCLDY    61  53  75 S6        30.05R
BUFFALO SD       N/A     56  49  77 SE7       29.97S
RAPID CITY     CLOUDY    57  55  93 N9        30.04F
$$

REGIONAL REPORTS...WYOMING/IDAHO/WASHINGTON

CITY           SKY/WX    TMP DP  RH WIND       PRES   REMARKS
GILLETTE       MOCLDY    54  47  77 W3        30.06R
SHERIDAN       CLOUDY    52  44  74 S5        30.03S
BUFFALO WY     CLOUDY    56  40  55 NW8       30.09R
CODY           CLEAR     55  43  62 S3        30.05S
YELLOWSTONE LA   N/A     47  34  60 CALM      30.19R
IDAHO FALLS    CLOUDY    68  33  27 S12       30.00R
SALMON         CLEAR     64  39  39 SE3       29.92R
BOISE          CLEAR     78  32  18 CALM      29.90S
SPOKANE        MOCLDY    79  36  21 S5        29.85F
$$

REGIONAL REPORTS...ALBERTA

CITY           SKY/WX    TMP DP  RH WIND       PRES   REMARKS
EDMONTON       PTCLDY    64  50  59 S7        29.74F
CALGARY        CLOUDY    63  46  55 S9        29.81F
LETHBRIDGE     MOCLDY    61  43  51 S14       29.84F
MEDICINE HAT   PTCLDY    63  46  55 SE5       29.86F
WATERTON GATE    N/A     55  43  62 SW5         N/A
MILK RIVER       N/A     52  41  66 SE6         N/A
$$

REGIONAL REPORTS...SASKATCHEWAN

CITY           SKY/WX    TMP DP  RH WIND       PRES   REMARKS
SWIFT CURRENT  CLEAR     55  43  62 SW5       29.91S
REGINA         MOCLDY    55  52  88 W5        29.90S
SASKATOON      PTCLDY    57  52  82 E3        29.88S
VAL MARIE        N/A     46  41  81 NE3         N/A
ROCKGLEN         N/A     52  46  82 S3          N/A
ASSINIBOIA       N/A     59  52  77 SE6         N/A
$$




USA.gov is the U.S. government's official web portal to all federal, state and local government web resources and services.